Change the Weather History Date:

Sunday, October 30, 2011

  Actual Average Record
Temperature  
Mean Temperature 45 °F -  
Max Temperature 55 °F 61 °F 82 °F (1996)
Min Temperature 35 °F 42 °F 30 °F (2008)
Degree Days  
Heating Degree Days 20    
Moisture  
Dew Point 32 °F    
Average Humidity 68    
Maximum Humidity 86    
Minimum Humidity 35    
Precipitation  
Precipitation 0.00 in - - ()
Sea Level Pressure  
Sea Level Pressure 30.28 in    
Wind  
Wind Speed 7 mph (NNW)    
Max Wind Speed 12 mph    
Max Gust Speed 16 mph    
Visibility 10 miles    
Events      
Averages and records for this station are not official NWS values.
T = Trace of Precipitation, MM = Missing Value Source: NWS Daily Summary

Daily Weather History Graph

Daily Weather History Graph

Search for Another Location

Airport or City:

Trip Planner

Search our weather history database for the weather conditions in past years. The results will help you decide how hot, cold, wet, or windy it might be!

Date:

Astronomy

Oct. 30, 2011 Rise Set
Actual Time 7:33 AM EDT 6:11 PM EDT
Civil Twilight 7:05 AM EDT 6:39 PM EDT
Nautical Twilight 6:34 AM EDT 7:10 PM EDT
Astronomical Twilight 6:03 AM EDT 7:41 PM EDT
Moon 11:48 AM EDT (10/30) 9:40 PM EDT (10/30)
Length of Visible Light 11h 33m
Length of Day
10h 38m
Waxing Crescent, 20% of the Moon is Illuminated
Oct 30
Waxing Crescent
Nov 2
First Quarter
Nov 10
Full
Nov 18
Last Quarter
Nov 25
New

Hourly Weather History & Observations

Time (EDT) Temp. Windchill Dew Point Humidity Pressure Visibility Wind Dir Wind Speed Gust Speed Precip Events Conditions
12:56 AM 37.0 °F 29.8 °F 33.1 °F 86% 30.12 in 9.0 mi NW 10.4 mph - N/A   Clear
1:56 AM 35.1 °F 32.2 °F 30.9 °F 85% 30.13 in 10.0 mi NNW 3.5 mph - N/A   Clear
2:56 AM 36.0 °F 30.3 °F 30.9 °F 82% 30.14 in 10.0 mi North 6.9 mph - N/A   Clear
3:56 AM 36.0 °F 28.0 °F 30.9 °F 82% 30.16 in 9.0 mi NNW 11.5 mph - N/A   Clear
4:56 AM 37.0 °F 29.3 °F 32.0 °F 82% 30.17 in 9.0 mi NNW 11.5 mph - N/A   Clear
5:56 AM 35.1 °F 27.9 °F 30.9 °F 85% 30.21 in 10.0 mi NW 9.2 mph - N/A   Clear
6:56 AM 35.1 °F - 30.0 °F 82% 30.24 in 10.0 mi Calm Calm - N/A   Clear
7:56 AM 35.1 °F 32.2 °F 30.0 °F 82% 30.26 in 10.0 mi NW 3.5 mph - N/A   Clear
8:56 AM 39.0 °F 34.0 °F 34.0 °F 82% 30.30 in 10.0 mi NNW 6.9 mph - N/A   Clear
9:56 AM 45.0 °F 39.7 °F 39.0 °F 80% 30.32 in 10.0 mi North 10.4 mph - N/A   Clear
10:56 AM 48.0 °F - 32.0 °F 54% 30.32 in 10.0 mi North 8.1 mph 16.1 mph N/A   Clear
11:56 AM 51.1 °F - 30.9 °F 46% 30.33 in 10.0 mi North 3.5 mph - N/A   Clear
12:56 PM 53.1 °F - 28.9 °F 40% 30.33 in 10.0 mi Variable 6.9 mph - N/A   Clear
1:56 PM 54.0 °F - 32.0 °F 43% 30.32 in 10.0 mi Variable 6.9 mph - N/A   Clear
2:56 PM 54.0 °F - 27.0 °F 35% 30.32 in 10.0 mi Calm Calm - N/A   Clear
3:56 PM 55.0 °F - 28.0 °F 35% 30.32 in 10.0 mi East 8.1 mph - N/A   Clear
4:56 PM 54.0 °F - 27.0 °F 35% 30.32 in 10.0 mi East 5.8 mph - N/A   Partly Cloudy
5:56 PM 53.1 °F - 28.0 °F 38% 30.32 in 10.0 mi East 6.9 mph - N/A   Partly Cloudy
6:56 PM 45.0 °F 41.2 °F 35.1 °F 68% 30.34 in 10.0 mi NW 6.9 mph - N/A   Partly Cloudy
7:56 PM 42.1 °F 38.4 °F 36.0 °F 79% 30.35 in 10.0 mi NW 5.8 mph - N/A   Partly Cloudy
8:56 PM 41.0 °F 36.4 °F 36.0 °F 82% 30.36 in 10.0 mi NW 6.9 mph - N/A   Clear
9:56 PM 39.9 °F 35.1 °F 35.1 °F 83% 30.38 in 10.0 mi WNW 6.9 mph - N/A   Clear
10:56 PM 39.0 °F 33.4 °F 34.0 °F 82% 30.39 in 10.0 mi NW 8.1 mph - N/A   Clear
11:56 PM 37.9 °F 32.1 °F 33.1 °F 83% 30.39 in 10.0 mi NW 8.1 mph - N/A   Clear